Wind_Speed
42 39 40 36 30 29 33 33 32 29 28 27 25 22 20 17 15 11 8 8 10 10 10 9 8 7 9 14 16 16 18 20
41 41 40 38 32 29 30 32 35 31 29 26 25 24 23 21 18 13 11 11 11 11 9 8 7 8 12 15 14 16 18 22
44 45 43 39 32 29 27 28 29 29 27 26 25 22 22 20 17 16 15 14 12 11 8 7 10 11 14 14 17 19 22 23
45 47 43 39 37 31 26 24 25 26 26 26 25 22 20 21 18 18 17 15 11 8 8 10 12 14 15 17 21 24 25 26
45 46 44 41 38 34 30 27 26 24 28 29 26 24 23 18 16 16 16 14 10 9 13 12 13 16 18 22 24 24 26 28
47 48 45 43 40 37 32 29 25 22 29 27 22 22 18 15 18 18 16 14 13 12 11 11 16 18 19 20 22 25 29 28
43 44 42 42 37 34 29 26 20 21 27 23 18 18 19 20 21 20 17 18 16 16 15 16 18 18 19 21 25 27 27 27
39 41 38 33 33 32 30 22 21 22 26 22 19 19 21 21 20 22 22 21 21 16 12 16 18 22 22 24 25 25 23 22
41 42 37 35 34 33 28 23 22 25 23 23 21 22 23 22 23 26 26 25 19 19 17 17 23 23 25 26 24 23 22 23
37 40 39 35 32 31 28 24 25 25 25 25 27 26 26 24 24 26 26 21 19 12 14 18 25 27 26 24 24 22 23 26
36 37 37 34 28 23 22 24 26 26 30 31 31 28 24 23 24 24 20 19 14 14 17 19 24 23 24 24 23 22 25 22
28 28 30 29 26 26 26 24 24 24 32 30 27 26 25 23 21 18 15 15 17 21 16 21 22 23 23 22 22 22 26 20
24 25 27 28 29 29 29 28 25 28 32 31 32 30 26 21 17 16 19 20 18 12 20 19 22 23 21 21 21 23 27 20
32 32 34 35 36 36 35 33 28 29 31 34 34 28 22 18 19 15 21 19 8 17 19 20 23 21 20 20 24 26 26 22
35 37 39 39 40 38 35 29 27 32 36 34 29 24 20 16 16 15 13 6 14 17 17 20 20 19 20 23 24 26 24 22
35 37 38 40 39 38 35 32 31 34 33 28 22 18 18 18 16 15 10 9 11 14 18 22 22 21 22 24 25 24 21 22
19 30 31 33 37 36 35 35 32 30 27 23 19 17 21 17 14 13 9 8 12 18 21 22 24 24 25 23 23 24 23 22
7 5 11 25 27 28 31 31 28 25 22 16 17 22 20 16 11 7 5 12 19 17 22 23 23 25 25 23 23 25 25 24
10 8 10 16 19 22 23 25 27 24 20 22 21 17 13 10 5 7 21 14 13 22 23 22 24 24 25 23 23 25 26 23
Wind_Direction
184 190 189 184 183 188 189 190 191 193 194 199 205 211 219 219 217 233 257 219 206 204 218 235 270 286 305 328 334 335 336 338
187 191 191 188 189 188 191 191 193 198 201 206 212 220 221 228 242 243 233 215 212 223 238 267 285 310 324 327 328 328 333 335
187 192 192 195 196 197 198 200 202 204 209 212 212 220 232 241 241 237 208 212 223 240 266 303 311 310 316 317 322 327 330 330
186 191 197 200 203 204 208 208 207 210 210 208 214 218 228 227 213 202 204 216 226 251 282 291 299 308 309 315 323 323 322 322
191 194 198 205 210 208 209 210 208 212 210 216 223 229 219 214 211 208 217 226 241 264 286 287 287 297 303 309 312 314 313 312
192 199 204 204 208 208 209 208 213 212 209 217 217 217 223 214 203 211 220 226 226 246 253 262 281 288 292 297 300 301 304 305
195 197 199 202 205 208 216 214 214 217 216 211 211 210 205 208 211 215 216 216 223 234 238 258 273 276 279 286 295 300 299 299
197 198 196 196 205 210 213 215 214 211 204 211 207 210 219 230 230 225 222 215 223 225 244 272 277 276 290 298 299 302 306 304
208 203 201 209 213 208 214 212 206 198 206 213 214 220 227 226 224 220 214 216 215 230 244 278 277 291 296 299 306 312 312 309
209 202 210 211 213 212 218 209 202 208 208 208 214 215 213 209 207 206 212 219 227 254 289 284 289 294 299 307 310 312 310 306
202 207 209 211 223 226 210 206 214 219 207 210 211 215 217 219 220 218 216 223 253 275 290 280 291 300 307 309 311 310 311 306
192 201 206 211 211 204 199 207 217 220 212 211 216 223 218 214 213 212 223 248 260 300 282 287 303 308 305 305 308 306 319 305
211 216 214 210 210 209 210 209 203 206 209 219 225 215 217 219 228 254 259 262 290 306 281 292 306 305 302 303 303 303 318 300
210 209 212 214 213 210 210 209 216 220 220 219 212 216 220 239 256 237 247 282 263 256 275 297 305 305 301 302 305 302 312 304
213 213 214 214 212 212 211 211 219 218 212 210 212 220 239 233 225 234 267 212 276 268 293 307 310 307 301 297 292 297 312 296
221 219 217 216 212 211 211 216 217 213 210 213 217 220 206 217 220 209 213 300 270 304 314 306 307 303 301 299 300 302 304 294
238 234 225 222 219 216 214 214 213 208 209 210 197 204 202 203 206 227 258 267 318 311 295 303 299 301 297 300 298 300 303 296
81 98 221 227 219 216 213 212 203 193 190 194 194 191 200 211 216 188 199 277 275 290 288 290 294 297 300 301 297 302 301 302
108 147 181 204 213 214 209 191 181 185 186 178 183 189 171 158 151 317 294 291 286 275 284 292 294 296 301 304 299 300 303 295
Height
1524 1526 1529 1532 1533 1535 1538 1543 1546 1550 1553 1555 1556 1558 1558 1560 1561 1561 1563 1565 1565 1564 1565 1566 1565 1565 1567 1565 1562 1561 1560 1558
1520 1523 1527 1530 1531 1534 1536 1539 1543 1546 1549 1551 1552 1555 1557 1557 1559 1559 1561 1563 1563 1564 1564 1563 1563 1563 1563 1562 1561 1560 1558 1555
1521 1524 1526 1526 1528 1532 1535 1537 1540 1543 1546 1548 1551 1553 1554 1556 1556 1557 1559 1561 1561 1561 1560 1560 1561 1561 1560 1559 1558 1557 1556 1554
1515 1518 1520 1524 1526 1529 1533 1535 1537 1540 1543 1546 1548 1549 1551 1551 1552 1554 1556 1558 1559 1558 1558 1559 1559 1558 1557 1557 1555 1553 1552 1552
1507 1511 1515 1517 1521 1526 1528 1531 1534 1537 1540 1542 1544 1545 1546 1548 1551 1553 1554 1555 1556 1555 1554 1554 1554 1554 1555 1554 1552 1550 1548 1547
1501 1503 1505 1510 1515 1519 1524 1528 1532 1535 1536 1539 1541 1542 1544 1547 1549 1550 1551 1552 1552 1551 1552 1552 1552 1552 1550 1549 1548 1547 1544 1543
1500 1503 1505 1510 1516 1519 1522 1525 1528 1531 1533 1536 1537 1539 1541 1544 1546 1547 1549 1550 1549 1549 1549 1550 1550 1549 1547 1546 1544 1541 1539 1539
1496 1500 1503 1508 1511 1515 1518 1520 1522 1525 1528 1532 1534 1536 1539 1541 1543 1544 1545 1546 1547 1546 1550 1550 1549 1548 1545 1542 1540 1537 1535 1534
1492 1495 1499 1503 1507 1511 1515 1516 1519 1522 1526 1529 1531 1534 1536 1538 1540 1541 1542 1542 1542 1544 1542 1543 1543 1542 1540 1538 1536 1532 1531 1531
1488 1493 1496 1500 1504 1507 1510 1515 1517 1520 1522 1525 1529 1531 1533 1535 1537 1538 1537 1539 1538 1542 1540 1540 1541 1539 1536 1534 1532 1530 1529 1528
1487 1491 1494 1500 1502 1505 1509 1513 1515 1517 1520 1523 1526 1530 1531 1532 1533 1534 1535 1532 1539 1534 1535 1538 1537 1535 1532 1531 1530 1528 1526 1524
1487 1491 1495 1498 1501 1502 1505 1508 1511 1515 1518 1521 1524 1527 1529 1529 1530 1531 1527 1533 1530 1531 1533 1534 1532 1531 1529 1528 1527 1526 1523 1521
1482 1485 1488 1492 1495 1497 1499 1503 1507 1511 1514 1518 1520 1520 1523 1525 1525 1526 1527 1526 1525 1529 1531 1529 1529 1527 1525 1525 1525 1522 1520 1518
1476 1479 1481 1484 1487 1491 1494 1497 1501 1505 1508 1509 1511 1516 1519 1517 1520 1522 1519 1521 1523 1525 1526 1525 1524 1522 1522 1521 1519 1517 1514 1512
1473 1475 1477 1480 1484 1488 1491 1496 1498 1500 1502 1506 1508 1511 1512 1515 1517 1516 1518 1518 1522 1522 1522 1521 1519 1517 1517 1516 1514 1512 1510 1507
1471 1472 1476 1479 1483 1485 1489 1491 1494 1497 1500 1504 1506 1506 1509 1510 1511 1513 1515 1516 1518 1519 1518 1516 1514 1513 1513 1512 1510 1507 1505 1503
1469 1471 1475 1477 1479 1482 1486 1489 1492 1495 1498 1501 1503 1506 1506 1506 1508 1511 1511 1514 1515 1514 1513 1513 1510 1508 1507 1505 1504 1502 1500 1498
1471 1472 1473 1476 1479 1482 1485 1487 1491 1495 1498 1500 1501 1502 1503 1504 1505 1504 1505 1508 1508 1508 1507 1506 1505 1503 1502 1501 1499 1497 1495 1492
1473 1474 1475 1478 1480 1482 1484 1488 1491 1494 1495 1496 1498 1499 1499 1499 1500 1503 1500 1499 1501 1501 1501 1501 1499 1498 1496 1495 1494 1491 1489 1487